RH
93 88 99 62 82 95 89 85 68 68 60 62 65 63 53 53 54 52 45 46 40 37 35 34 35 34 31 29 29 26 27 28 29 30 30 31 32 32 31 30 32 34 35 34
99 98 82 57 80 99 91 79 65 57 64 66 60 58 54 55 57 54 46 46 38 39 37 37 36 33 30 30 28 29 31 32 32 32 32 32 30 29 29 30 32 33 35 37
98 86 63 95 97 100 98 94 65 65 73 70 63 63 62 60 59 52 40 47 39 40 35 36 37 33 31 29 31 33 34 36 34 33 32 30 28 28 34 39 41 43 44 43
100 85 99 95 98 100 94 83 66 67 74 61 66 43 38 44 49 41 38 38 34 40 36 35 36 33 31 32 35 36 35 35 32 27 24 27 35 42 45 45 42 38 33 31
77 79 97 99 90 100 99 95 76 82 70 87 79 61 44 44 42 38 36 36 34 35 36 37 36 33 34 35 36 34 34 28 24 23 27 36 45 47 45 43 40 35 27 24
87 83 99 92 99 98 96 91 91 90 76 67 56 55 37 40 41 41 36 36 36 37 37 38 36 34 35 36 34 35 31 29 30 29 33 43 50 52 50 46 41 26 22 22
99 97 99 98 99 100 100 99 95 82 80 53 46 47 40 35 28 34 32 36 39 41 39 38 36 35 36 35 35 35 33 34 35 34 39 50 57 57 53 48 30 24 24 23
94 98 99 90 99 98 98 98 61 63 57 44 51 47 39 41 40 30 36 40 42 41 40 38 37 37 37 36 38 37 37 39 40 42 49 57 60 60 56 49 32 32 34 31
93 90 86 96 100 98 99 96 63 52 44 39 47 44 41 35 39 36 34 37 38 39 38 37 37 38 38 39 40 39 41 43 45 50 57 61 64 64 62 53 37 41 41 31
99 90 98 100 100 100 99 78 72 54 50 46 38 36 35 42 39 38 38 36 36 39 38 38 37 38 41 42 42 42 46 47 50 56 62 65 69 70 66 59 46 44 43 30
98 95 98 100 100 98 99 98 76 53 48 38 39 34 38 40 34 36 38 40 37 37 39 40 38 39 44 46 45 46 49 50 55 60 65 69 74 73 72 65 53 47 33 23
99 98 99 98 100 96 90 90 73 54 53 47 42 38 39 34 29 31 35 36 39 37 39 42 41 42 48 51 49 51 51 52 56 62 69 71 75 75 67 62 54 44 30 25
98 97 99 100 95 100 98 86 83 70 57 46 39 39 36 35 33 31 34 36 36 38 40 42 45 48 52 55 56 54 52 53 57 64 69 72 75 72 62 62 48 38 29 30
99 85 71 54 58 83 98 88 79 70 58 50 46 42 38 37 34 32 33 34 36 38 39 39 44 51 56 60 58 53 51 54 61 67 72 75 77 73 67 64 54 36 33 35
99 73 60 53 55 68 72 82 78 77 68 56 46 47 43 43 44 43 43 36 38 43 41 41 44 54 58 60 55 51 53 60 64 68 71 73 76 76 69 63 43 37 36 37
98 84 68 63 62 59 60 65 71 72 70 64 53 51 48 48 48 47 46 46 40 47 50 47 50 55 57 58 52 54 59 57 57 60 62 72 77 67 56 45 42 39 41 38
99 97 68 57 64 68 64 58 61 64 65 60 57 55 53 52 50 49 45 45 43 46 51 52 55 57 58 53 54 57 54 48 44 46 58 64 63 55 48 46 40 41 39 29
94 94 81 79 61 64 50 49 57 58 57 63 62 57 54 54 54 54 50 46 48 51 52 53 55 55 52 58 58 46 30 21 29 44 52 54 47 50 46 40 42 40 32 28
91 99 93 80 80 66 53 51 51 58 45 48 53 57 58 55 51 54 54 54 53 51 51 53 53 56 61 51 26 8 12 18 24 34 43 37 40 40 40 44 40 32 29 24
99 100 99 88 61 62 44 41 41 50 51 44 42 45 50 44 55 54 54 56 52 52 58 58 61 60 40 17 13 16 18 21 27 34 34 37 39 41 45 38 32 31 28 20
100 100 99 94 96 64 50 39 39 46 42 35 33 30 32 56 60 61 61 60 62 61 59 63 56 38 20 17 19 20 21 25 29 32 37 42 43 45 36 34 35 34 22 18
98 98 98 99 99 85 55 43 42 42 35 34 32 32 35 41 53 60 58 58 60 66 66 54 37 23 20 21 20 19 22 26 32 36 40 46 44 35 36 43 39 25 22 25
94 78 70 72 74 57 53 46 44 43 47 41 38 41 49 52 54 56 62 70 66 56 46 32 24 23 22 19 18 21 27 33 35 40 48 41 36 42 52 45 31 28 30 26
75 77 72 66 60 59 56 52 45 38 39 42 50 51 56 66 67 62 58 57 50 38 28 25 24 20 17 17 20 25 31 35 40 42 36 38 50 58 54 40 35 34 29 24
72 68 69 67 63 62 59 56 43 42 49 48 45 48 52 58 61 58 50 38 31 28 25 22 17 14 13 18 23 28 33 36 36 36 44 56 61 61 55 43 38 33 27 25
53 56 57 65 62 60 54 49 53 56 57 54 54 60 65 67 64 55 42 31 26 20 12 8 9 11 14 17 25 32 33 34 40 49 58 64 64 63 54 43 37 30 27 25
Wind_Speed
30 35 39 45 45 35 31 27 32 24 27 30 28 26 23 20 21 17 15 16 18 14 14 14 13 12 13 13 13 10 7 6 7 8 10 13 15 17 19 22 22 24 26 27
29 39 42 41 41 40 32 30 30 25 20 21 20 23 23 22 22 20 18 19 22 19 18 17 14 13 12 11 10 8 6 6 8 10 12 14 17 19 21 22 23 25 26 26
37 39 41 37 44 39 37 34 28 28 21 19 16 24 27 27 24 26 22 22 24 22 20 20 17 14 12 11 10 8 7 8 10 11 14 17 19 20 20 19 20 22 25 28
31 43 31 42 52 35 41 36 28 21 18 15 17 9 17 20 26 23 23 28 28 26 24 21 19 16 14 12 10 8 8 9 10 12 15 16 16 16 16 19 22 25 28 30
37 35 40 43 55 39 30 28 25 22 18 7 11 10 20 14 19 22 20 26 27 30 25 23 20 17 15 13 10 9 9 8 10 12 13 14 14 15 18 22 25 28 30 30
28 26 34 49 42 38 32 30 26 18 10 9 17 17 14 18 17 18 20 24 30 29 27 24 20 19 16 14 12 10 9 9 11 13 14 14 15 18 21 24 27 29 27 29
26 29 22 48 32 38 29 35 8 6 7 7 12 16 18 5 11 9 13 22 25 27 26 23 21 20 17 15 14 12 11 12 14 16 16 16 18 22 25 28 29 28 29 32
19 12 33 37 29 33 42 34 12 7 9 14 9 9 9 17 17 15 10 15 24 26 25 23 23 21 19 17 16 14 13 15 18 19 18 20 23 27 30 32 32 32 34 37
14 12 22 31 29 33 33 34 8 6 6 15 11 11 6 10 7 11 15 21 25 26 24 24 24 22 20 18 17 16 17 19 21 22 22 25 28 31 33 35 36 37 39 40
5 9 23 24 38 30 24 22 11 5 7 6 10 11 7 11 7 10 17 21 27 27 25 25 25 24 21 19 18 18 19 22 24 25 26 29 32 34 37 38 40 41 42 43
10 16 13 23 15 32 27 18 9 7 0 4 7 7 11 9 6 8 10 18 24 29 27 24 25 24 22 19 19 20 22 24 26 28 29 32 34 37 39 41 44 43 44 42
10 10 2 15 12 20 22 22 18 11 6 6 4 7 15 8 5 5 5 8 19 28 26 25 25 24 21 21 21 22 24 26 29 30 32 34 36 39 41 43 46 45 44 42
16 2 6 10 13 21 24 15 23 15 6 16 9 7 14 13 5 4 4 3 10 22 28 27 25 23 24 24 24 25 26 29 31 32 34 36 38 41 43 45 46 46 45 42
8 6 5 6 11 18 22 25 23 22 18 16 17 7 11 15 10 6 3 3 1 13 22 25 26 26 26 26 26 27 29 31 32 34 36 38 40 42 44 46 47 47 45 42
6 4 7 5 5 13 16 22 26 26 25 19 18 20 12 9 13 14 14 14 12 12 17 22 25 27 27 27 27 29 31 31 33 35 38 39 41 43 46 47 48 47 44 43
16 3 2 7 9 10 16 21 26 29 30 27 22 21 11 16 17 18 17 18 17 16 20 24 27 28 28 28 29 30 30 33 35 38 39 41 42 45 46 47 47 45 43 43
20 6 3 4 7 8 14 26 26 26 29 28 33 28 19 22 20 18 17 20 20 21 20 25 26 27 28 29 29 30 33 35 37 38 39 41 43 44 45 46 45 44 44 45
25 12 5 3 6 6 8 9 25 27 25 27 29 20 23 25 25 21 22 21 21 20 21 23 25 27 27 27 30 33 34 34 35 37 40 42 42 43 44 44 43 43 45 47
34 14 5 4 6 10 9 15 16 25 23 25 24 24 26 29 29 25 22 21 20 22 22 23 23 24 25 28 30 29 30 33 35 38 40 42 40 42 42 41 41 43 47 48
35 22 13 8 4 5 3 6 7 12 18 15 17 22 29 24 23 25 22 20 22 21 21 21 22 24 26 26 27 29 30 33 35 37 39 39 40 39 40 40 43 46 48 48
30 22 21 17 6 10 14 9 4 9 3 4 9 15 18 20 22 20 14 20 20 19 20 21 23 24 25 26 27 29 31 33 35 36 36 37 37 37 39 42 44 46 46 46
22 19 15 19 7 10 10 7 10 8 5 6 7 7 13 17 17 18 15 15 16 18 21 23 24 24 25 26 28 30 31 32 32 33 33 33 34 37 40 43 43 43 45 47
19 20 16 15 14 10 8 10 13 16 13 9 8 8 10 11 13 14 14 16 18 20 22 23 23 24 25 27 28 29 29 29 30 30 30 32 34 37 39 42 43 44 46 49
19 25 22 17 21 20 16 16 14 11 11 10 7 7 9 10 11 12 14 17 20 20 19 21 22 24 25 26 27 27 27 28 28 29 31 33 35 37 39 41 43 46 48 51
19 20 26 28 22 19 18 20 18 13 11 9 10 10 11 11 13 15 16 16 16 17 18 20 23 24 24 25 25 26 26 26 27 29 31 32 35 38 40 41 44 47 49 51
17 21 22 21 26 22 19 14 14 14 14 14 13 13 13 14 15 15 14 15 16 17 19 21 22 23 23 24 24 23 24 26 28 29 31 34 37 40 42 43 45 46 49 51
Wind_Direction
220 215 218 214 214 214 215 214 215 224 218 228 237 244 244 237 247 258 237 235 243 235 228 221 227 237 245 248 250 242 237 245 254 264 271 275 278 280 280 280 283 286 289 290
219 222 221 218 216 221 214 218 212 218 216 217 233 240 243 242 242 248 237 227 241 240 234 229 228 232 231 232 225 223 233 250 265 271 276 277 277 277 279 282 286 288 289 290
221 225 222 215 212 212 218 219 210 206 204 225 237 253 246 241 241 236 233 226 232 229 232 230 226 221 220 216 215 225 243 264 274 282 285 283 281 281 284 286 285 287 291 293
235 228 222 213 217 210 213 206 218 195 197 221 213 272 221 220 233 239 231 226 231 224 221 221 218 216 211 210 217 236 258 276 285 288 287 287 285 286 288 293 297 298 298 297
236 230 224 213 214 214 205 197 187 191 203 232 216 235 250 219 209 219 231 227 225 223 218 211 208 206 205 210 225 243 257 275 289 295 299 297 294 295 300 300 301 302 303 304
251 230 207 213 214 208 191 180 167 183 190 222 226 214 254 216 214 226 232 226 220 216 205 199 200 202 205 216 229 239 254 281 305 314 308 298 296 300 305 308 309 308 307 308
226 232 201 208 219 192 176 179 164 155 184 218 201 214 225 197 203 201 231 215 210 204 198 196 200 202 209 221 233 243 264 296 317 320 310 300 302 308 311 312 313 311 312 317
199 211 218 208 207 192 181 170 164 163 183 195 167 219 227 221 228 241 204 208 204 194 195 198 200 204 215 228 239 254 280 301 315 319 309 304 307 311 315 318 319 317 319 322
180 221 219 212 203 192 173 209 162 130 98 159 180 213 221 201 214 203 211 205 201 197 198 202 204 210 221 234 247 266 285 303 313 315 308 308 310 313 317 318 319 318 320 322
269 238 193 185 182 181 175 174 182 179 155 180 166 185 154 178 199 205 212 213 207 202 204 207 208 215 226 240 254 272 290 303 310 310 306 307 310 312 314 315 317 317 318 320
207 208 204 149 158 185 172 177 176 199 80 211 154 174 160 161 180 205 216 222 218 209 210 210 213 220 230 245 260 276 290 299 304 304 303 305 306 307 310 312 313 315 317 320
213 201 139 139 148 179 183 200 193 197 170 245 349 121 189 161 163 184 195 224 221 215 211 214 220 226 236 250 264 276 289 296 299 298 300 302 303 305 307 308 309 314 317 319
175 231 110 101 123 175 184 194 207 207 250 218 216 137 189 202 213 164 171 204 227 210 211 216 225 232 243 256 267 281 290 295 295 296 297 299 300 302 304 305 311 314 317 317
172 277 204 165 197 180 192 197 201 209 222 225 219 175 176 205 207 205 223 168 228 221 221 227 233 240 249 260 273 282 289 292 292 291 294 295 297 300 304 307 311 314 316 315
228 276 221 200 169 189 197 205 210 218 225 227 225 230 214 238 254 255 265 260 269 249 243 241 242 246 256 267 276 284 287 288 288 290 292 294 296 300 304 307 310 313 314 315
204 257 226 214 222 199 212 214 216 225 228 232 234 231 240 224 229 255 267 263 262 260 262 252 245 253 264 272 281 284 285 287 289 289 291 292 296 300 303 305 309 312 314 315
202 216 199 212 194 212 243 225 223 228 231 227 233 235 238 255 255 264 268 260 258 264 258 248 251 261 269 277 279 282 286 287 287 288 289 292 296 299 301 306 310 313 315 317
195 208 219 161 156 217 255 241 222 226 238 233 235 229 231 249 257 260 262 256 253 252 246 248 257 264 270 274 280 285 286 286 286 287 289 292 296 299 304 309 312 314 317 319
203 198 203 201 218 287 264 246 233 209 235 234 236 230 245 244 257 266 261 250 248 240 244 255 260 265 272 279 284 284 284 286 286 287 289 294 299 303 309 312 314 317 319 318
196 215 214 193 220 231 239 269 227 215 257 252 245 237 238 249 252 262 248 240 235 242 252 256 264 272 279 284 283 284 285 286 286 288 293 297 303 309 311 314 317 318 317 318
194 201 212 219 237 256 262 273 213 184 240 250 238 240 244 237 231 239 243 237 242 250 257 264 272 279 283 282 284 286 286 287 288 292 298 303 308 310 312 317 318 317 319 321
185 178 197 216 216 253 236 233 198 218 250 290 289 258 225 228 228 230 241 235 245 255 266 273 277 279 281 285 286 288 288 291 294 299 303 306 309 314 316 315 317 321 323 324
202 198 192 197 216 230 244 258 250 246 267 275 275 248 214 209 214 223 233 248 258 266 272 274 277 281 285 288 289 291 294 296 299 303 306 309 314 315 316 319 322 324 325 324
204 206 213 218 235 247 254 264 255 253 265 272 257 221 209 209 219 234 248 261 268 270 273 279 284 287 289 291 293 295 296 300 305 307 309 311 313 317 320 322 325 325 326 326
220 214 217 229 236 250 262 251 252 250 253 246 231 217 216 225 242 258 270 270 271 275 279 283 287 291 295 295 297 300 302 306 306 308 309 313 317 320 325 326 325 326 326 326
230 224 225 243 247 254 250 251 244 240 242 236 225 226 237 250 263 268 263 265 272 281 289 291 293 296 299 300 299 302 305 305 307 309 313 316 320 325 326 325 325 325 326 327